,,,PA_Meas_PMT16A,,PR_Meas_QMR101_102,,RH_Meas_QMH101,,SR_Meas_QMS101,,TA_Meas_QMH101,,GenWind,,GenWind,
date,time,status,PA,status,PR,status,RH,status,SR,status,TA,status,DirAvg,status,SpdAvg,
2011-05-13, 00:00:04,VALID,1000.14,VALID,0,VALID,85.7951,VALID,0,VALID,24.6184,VALID,13,VALID,0.904688,
2011-05-13, 00:01:04,VALID,1000.11,VALID,0,VALID,85.7188,VALID,0,VALID,24.5989,VALID,13,VALID,0.980078,
2011-05-13, 00:02:04,VALID,1000.11,VALID,0,VALID,85.6043,VALID,0,VALID,24.5989,VALID,14,VALID,0.955859,
2011-05-13, 00:03:04,VALID,1000.1,VALID,0,VALID,85.4365,VALID,0,VALID,24.6184,VALID,18,VALID,0.933984,
2011-05-13, 00:04:04,VALID,1000.12,VALID,0,VALID,85.2915,VALID,0,VALID,24.638,VALID,18,VALID,0.748047,
2011-05-13, 00:05:04,VALID,1000.1,VALID,0,VALID,85.4136,VALID,0,VALID,24.638,VALID,18,VALID,0.534766,
2011-05-13, 00:06:04,VALID,1000.11,VALID,0,VALID,85.5738,VALID,0,VALID,24.638,VALID,18,VALID,0,
2011-05-13, 00:07:04,VALID,1000.14,VALID,0,VALID,85.7798,VALID,0,VALID,24.6184,VALID,18,VALID,0,
2011-05-13, 00:08:04,VALID,1000.12,VALID,0,VALID,85.7417,VALID,0,VALID,24.5989,VALID,18,VALID,0.0351563,
2011-05-13, 00:09:04,VALID,1000.09,VALID,0,VALID,85.8943,VALID,0,VALID,24.5794,VALID,18,VALID,0.260938,
2011-05-13, 00:10:04,VALID,1000.09,VALID,0,VALID,86.1308,VALID,0,VALID,24.5794,VALID,18,VALID,0.607813,
2011-05-13, 00:11:04,VALID,1000.09,VALID,0,VALID,85.9553,VALID,0,VALID,24.5794,VALID,26,VALID,0.828516,
2011-05-13, 00:12:04,VALID,1000.08,VALID,0,VALID,86.1842,VALID,0,VALID,24.5989,VALID,30,VALID,0.711328,
2011-05-13, 00:13:04,VALID,1000.09,VALID,0,VALID,86.436,VALID,0,VALID,24.5989,VALID,30,VALID,0.437891,
2011-05-13, 00:14:04,VALID,1000.07,VALID,0,VALID,86.4894,VALID,0,VALID,24.5794,VALID,30,VALID,0.196875,
2011-05-13, 00:15:04,VALID,1000.06,VALID,0,VALID,86.497,VALID,0,VALID,24.5618,VALID,30,VALID,0.0683594,
2011-05-13, 00:16:04,VALID,1000.03,VALID,0,VALID,86.5733,VALID,0,VALID,24.5404,VALID,30,VALID,0,
2011-05-13, 00:17:04,VALID,1000.03,VALID,0,VALID,86.6725,VALID,0,VALID,24.5209,VALID,30,VALID,0.151562,
2011-05-13, 00:18:04,VALID,1000.03,VALID,0,VALID,86.642,VALID,0,VALID,24.5209,VALID,30,VALID,0,
2011-05-13, 00:19:04,VALID,1000.01,VALID,0,VALID,86.8098,VALID,0,VALID,24.5209,VALID,30,VALID,0,
2011-05-13, 00:20:04,VALID,999.965,VALID,0,VALID,86.7488,VALID,0,VALID,24.5013,VALID,30,VALID,0,
2011-05-13, 00:21:04,VALID,999.96,VALID,0,VALID,86.6496,VALID,0,VALID,24.5013,VALID,30,VALID,0,
2011-05-13, 00:22:04,VALID,999.924,VALID,0,VALID,86.7335,VALID,0,VALID,24.5013,VALID,30,VALID,0,
2011-05-13, 00:23:04,VALID,999.915,VALID,0,VALID,86.8022,VALID,0,VALID,24.5013,VALID,30,VALID,0,
2011-05-13, 00:24:04,VALID,999.948,VALID,0,VALID,86.6649,VALID,0,VALID,24.5209,VALID,30,VALID,0,
2011-05-13, 00:25:04,VALID,999.908,VALID,0,VALID,86.558,VALID,0,VALID,24.5013,VALID,30,VALID,0,
2011-05-13, 00:26:04,VALID,999.898,VALID,0,VALID,86.5809,VALID,0,VALID,24.5013,VALID,30,VALID,0,
2011-05-13, 00:27:04,VALID,999.828,VALID,0,VALID,86.5123,VALID,0,VALID,24.5013,VALID,30,VALID,0.188281,
2011-05-13, 00:28:04,VALID,999.831,VALID,0,VALID,86.5123,VALID,0,VALID,24.5404,VALID,30,VALID,0.369531,
2011-05-13, 00:29:04,VALID,999.835,VALID,0,VALID,86.2986,VALID,0,VALID,24.5599,VALID,18,VALID,0.571094,
2011-05-13, 00:30:04,VALID,999.848,VALID,0,VALID,86.6038,VALID,0,VALID,24.6203,VALID,16,VALID,0.307813,
2011-05-13, 00:31:04,VALID,999.815,VALID,0,VALID,86.7717,VALID,0,VALID,24.5794,VALID,16,VALID,0,
2011-05-13, 00:32:04,VALID,999.822,VALID,0,VALID,86.9319,VALID,0,VALID,24.5794,VALID,16,VALID,0.475,
2011-05-13, 00:33:04,VALID,999.804,VALID,0,VALID,87.0921,VALID,0,VALID,24.5209,VALID,4,VALID,0.649219,
2011-05-13, 00:34:04,VALID,999.763,VALID,0,VALID,87.1303,VALID,0,VALID,24.4818,VALID,358,VALID,0.668359,
2011-05-13, 00:35:04,VALID,999.767,VALID,0,VALID,87.3439,VALID,0,VALID,24.5032,VALID,355,VALID,0.694141,
2011-05-13, 00:36:04,VALID,999.713,VALID,0,VALID,87.3973,VALID,0,VALID,24.4428,VALID,355,VALID,0.481641,
2011-05-13, 00:37:04,VALID,999.739,VALID,0,VALID,87.5651,VALID,0,VALID,24.4428,VALID,355,VALID,0.0730469,
2011-05-13, 00:38:04,VALID,999.734,VALID,0,VALID,87.7254,VALID,0,VALID,24.3824,VALID,355,VALID,0,
2011-05-13, 00:39:04,VALID,999.716,VALID,0,VALID,87.8398,VALID,0,VALID,24.3842,VALID,355,VALID,0,
2011-05-13, 00:40:04,VALID,999.69,VALID,0,VALID,87.9619,VALID,0,VALID,24.3842,VALID,355,VALID,0,
2011-05-13, 00:41:04,VALID,999.716,VALID,0,VALID,87.8093,VALID,0,VALID,24.4037,VALID,263,VALID,0.850391,
2011-05-13, 00:42:04,VALID,999.67,VALID,0,VALID,87.527,VALID,0,VALID,24.4233,VALID,240,VALID,0.914844,
2011-05-13, 00:43:04,VALID,999.668,VALID,0,VALID,87.176,VALID,0,VALID,24.4623,VALID,240,VALID,0,
2011-05-13, 00:44:04,VALID,999.679,VALID,0,VALID,86.9929,VALID,0,VALID,24.4623,VALID,240,VALID,0,
2011-05-13, 00:45:04,VALID,999.668,VALID,0,VALID,87.0234,VALID,0,VALID,24.4837,VALID,240,VALID,0,
2011-05-13, 00:46:04,VALID,999.626,VALID,0,VALID,86.9319,VALID,0,VALID,24.4233,VALID,240,VALID,0,
2011-05-13, 00:47:04,VALID,999.611,VALID,0,VALID,87.0692,VALID,0,VALID,24.3842,VALID,240,VALID,0,
2011-05-13, 00:48:04,VALID,999.611,VALID,0,VALID,87.4507,VALID,0,VALID,24.3452,VALID,240,VALID,0,
2011-05-13, 00:49:04,VALID,999.604,VALID,0,VALID,87.6033,VALID,0,VALID,24.3452,VALID,240,VALID,0,
2011-05-13, 00:50:04,VALID,999.577,VALID,0,VALID,87.6643,VALID,0,VALID,24.3452,VALID,240,VALID,0,
2011-05-13, 00:51:04,VALID,999.546,VALID,0,VALID,87.6109,VALID,0,VALID,24.3647,VALID,240,VALID,0,
2011-05-13, 00:52:04,VALID,999.539,VALID,0,VALID,87.4889,VALID,0,VALID,24.3842,VALID,240,VALID,0,
2011-05-13, 00:53:04,VALID,999.546,VALID,0,VALID,87.3973,VALID,0,VALID,24.4037,VALID,240,VALID,0,
2011-05-13, 00:54:04,VALID,999.5,VALID,0,VALID,87.5194,VALID,0,VALID,24.4037,VALID,240,VALID,0,
2011-05-13, 00:55:04,VALID,999.504,VALID,0,VALID,87.9924,VALID,0,VALID,24.3842,VALID,69,VALID,1.07383,
2011-05-13, 00:56:04,VALID,999.502,VALID,0,VALID,88.206,VALID,0,VALID,24.3647,VALID,73,VALID,0.890625,
2011-05-13, 00:57:04,VALID,999.461,VALID,0,VALID,88.4197,VALID,0,VALID,24.3062,VALID,73,VALID,0.684766,
2011-05-13, 00:58:04,VALID,999.451,VALID,0,VALID,88.5189,VALID,0,VALID,24.2671,VALID,73,VALID,0.696094,
2011-05-13, 00:59:04,VALID,999.441,VALID,0,VALID,88.6257,VALID,0,VALID,24.2476,VALID,73,VALID,0.611719,
2011-05-13, 01:00:04,VALID,999.438,VALID,0,VALID,88.7172,VALID,0,VALID,24.2086,VALID,73,VALID,0.507422,
2011-05-13, 01:01:04,VALID,999.433,VALID,0,VALID,88.7401,VALID,0,VALID,24.1891,VALID,73,VALID,0.56875,
2011-05-13, 01:02:04,VALID,999.428,VALID,0,VALID,88.8088,VALID,0,VALID,24.1891,VALID,73,VALID,0.558984,
2011-05-13, 01:03:04,VALID,999.391,VALID,0,VALID,88.8164,VALID,0,VALID,24.1677,VALID,73,VALID,0.486328,
2011-05-13, 01:04:04,VALID,999.348,VALID,0,VALID,88.9995,VALID,0,VALID,24.1677,VALID,73,VALID,0.584766,
2011-05-13, 01:05:04,VALID,999.325,VALID,0,VALID,89.1292,VALID,0,VALID,24.1891,VALID,72,VALID,0.379297,
2011-05-13, 01:06:04,VALID,999.31,VALID,0,VALID,89.236,VALID,0,VALID,24.1696,VALID,72,VALID,0.398828,
2011-05-13, 01:07:04,VALID,999.283,VALID,0,VALID,89.0987,VALID,0,VALID,24.1305,VALID,17,VALID,0.782422,
2011-05-13, 01:08:04,VALID,999.284,VALID,0,VALID,88.8774,VALID,0,VALID,24.111,VALID,9,VALID,0.569141,
2011-05-13, 01:09:04,VALID,999.306,VALID,0,VALID,88.9003,VALID,0,VALID,24.0915,VALID,9,VALID,0.208984,
2011-05-13, 01:10:04,VALID,999.317,VALID,0,VALID,89.1674,VALID,0,VALID,24.0915,VALID,9,VALID,0,
2011-05-13, 01:11:04,VALID,999.337,VALID,0,VALID,89.3657,VALID,0,VALID,24.072,VALID,9,VALID,0,
2011-05-13, 01:12:04,VALID,999.331,VALID,0,VALID,89.5183,VALID,0,VALID,24.0329,VALID,9,VALID,0,
2011-05-13, 01:13:04,VALID,999.322,VALID,0,VALID,89.7167,VALID,0,VALID,24.0329,VALID,9,VALID,0,
2011-05-13, 01:14:04,VALID,999.32,VALID,0,VALID,89.9914,VALID,0,VALID,24.0329,VALID,9,VALID,0,
2011-05-13, 01:15:04,VALID,999.306,VALID,0,VALID,90.0906,VALID,0,VALID,24.0134,VALID,9,VALID,0,
2011-05-13, 01:16:04,VALID,999.302,VALID,0,VALID,90.1745,VALID,0,VALID,24.0134,VALID,9,VALID,0,
2011-05-13, 01:17:04,VALID,999.304,VALID,0,VALID,90.2584,VALID,0,VALID,24.0329,VALID,9,VALID,0,
2011-05-13, 01:18:04,VALID,999.305,VALID,0,VALID,90.2737,VALID,0,VALID,24.0329,VALID,9,VALID,0,
2011-05-13, 01:19:04,VALID,999.286,VALID,0,VALID,90.1821,VALID,0,VALID,23.9726,VALID,9,VALID,0,
2011-05-13, 01:20:04,VALID,999.273,VALID,0,VALID,90.144,VALID,0,VALID,23.9939,VALID,9,VALID,0,
2011-05-13, 01:21:04,VALID,999.253,VALID,0,VALID,90.1134,VALID,0,VALID,23.9744,VALID,9,VALID,0,
2011-05-13, 01:22:04,VALID,999.279,VALID,0,VALID,90.0982,VALID,0,VALID,23.9744,VALID,9,VALID,0,
2011-05-13, 01:23:04,VALID,999.264,VALID,0,VALID,90.0906,VALID,0,VALID,23.9549,VALID,9,VALID,0,
2011-05-13, 01:24:04,VALID,999.259,VALID,0,VALID,90.1058,VALID,0,VALID,23.914,VALID,9,VALID,0,
2011-05-13, 01:25:04,VALID,999.263,VALID,0,VALID,90.1668,VALID,0,VALID,23.9354,VALID,9,VALID,0,
2011-05-13, 01:26:04,VALID,999.26,VALID,0,VALID,90.1974,VALID,0,VALID,23.9159,VALID,9,VALID,0,
2011-05-13, 01:27:04,VALID,999.26,VALID,0,VALID,90.1897,VALID,0,VALID,23.875,VALID,9,VALID,0,
2011-05-13, 01:28:04,VALID,999.229,VALID,0,VALID,90.2203,VALID,0,VALID,23.8768,VALID,9,VALID,0,
2011-05-13, 01:29:04,VALID,999.187,VALID,0,VALID,90.3728,VALID,0,VALID,23.8555,VALID,9,VALID,0,
2011-05-13, 01:30:04,VALID,999.195,VALID,0,VALID,90.4949,VALID,0,VALID,23.8573,VALID,9,VALID,0,
2011-05-13, 01:31:04,VALID,999.169,VALID,0,VALID,90.4797,VALID,0,VALID,23.8165,VALID,9,VALID,0,
2011-05-13, 01:32:04,VALID,999.159,VALID,0,VALID,90.3881,VALID,0,VALID,23.8183,VALID,9,VALID,0,
2011-05-13, 01:33:04,VALID,999.161,VALID,0,VALID,90.1592,VALID,0,VALID,23.797,VALID,9,VALID,0,
2011-05-13, 01:34:04,VALID,999.14,VALID,0,VALID,89.9151,VALID,0,VALID,23.8378,VALID,9,VALID,0,
2011-05-13, 01:35:04,VALID,999.152,VALID,0,VALID,89.6786,VALID,0,VALID,23.8768,VALID,9,VALID,0,
2011-05-13, 01:36:04,VALID,999.118,VALID,0,VALID,89.4268,VALID,0,VALID,23.8768,VALID,9,VALID,0,
2011-05-13, 01:37:04,VALID,999.101,VALID,0,VALID,89.3047,VALID,0,VALID,23.8963,VALID,9,VALID,0,
2011-05-13, 01:38:04,VALID,999.063,VALID,0,VALID,89.2284,VALID,0,VALID,23.8963,VALID,9,VALID,0,
2011-05-13, 01:39:04,VALID,999.049,VALID,0,VALID,89.2208,VALID,0,VALID,23.8378,VALID,9,VALID,0,
2011-05-13, 01:40:04,VALID,999.07,VALID,0,VALID,89.3886,VALID,0,VALID,23.797,VALID,9,VALID,0,
2011-05-13, 01:41:04,VALID,999.043,VALID,0,VALID,89.5565,VALID,0,VALID,23.7775,VALID,9,VALID,0,
2011-05-13, 01:42:04,VALID,998.97,VALID,0,VALID,89.8693,VALID,0,VALID,23.7793,VALID,9,VALID,0,
2011-05-13, 01:43:04,VALID,998.977,VALID,0,VALID,90.0371,VALID,0,VALID,23.7793,VALID,56,VALID,0,
2011-05-13, 01:44:04,VALID,998.968,VALID,0,VALID,90.0219,VALID,0,VALID,23.7775,VALID,56,VALID,0,
2011-05-13, 01:45:04,VALID,998.946,VALID,0,VALID,90.0295,VALID,0,VALID,23.7384,VALID,56,VALID,0,
2011-05-13, 01:46:04,VALID,998.941,VALID,0,VALID,90.0677,VALID,0,VALID,23.7793,VALID,56,VALID,0,
2011-05-13, 01:47:04,VALID,998.926,VALID,0,VALID,90.0677,VALID,0,VALID,23.7597,VALID,56,VALID,0,
2011-05-13, 01:48:04,VALID,998.92,VALID,0,VALID,89.9456,VALID,0,VALID,23.7597,VALID,56,VALID,0,
2011-05-13, 01:49:04,VALID,998.948,VALID,0,VALID,89.793,VALID,0,VALID,23.7597,VALID,63,VALID,0,
2011-05-13, 01:50:04,VALID,998.926,VALID,0,VALID,89.7472,VALID,0,VALID,23.7402,VALID,64,VALID,0,
2011-05-13, 01:51:04,VALID,998.909,VALID,0,VALID,89.732,VALID,0,VALID,23.7012,VALID,64,VALID,0,
2011-05-13, 01:52:04,VALID,998.935,VALID,0,VALID,89.8083,VALID,0,VALID,23.6622,VALID,64,VALID,0,
2011-05-13, 01:53:04,VALID,998.895,VALID,0,VALID,89.938,VALID,0,VALID,23.6427,VALID,37,VALID,0.761328,
2011-05-13, 01:54:04,VALID,998.902,VALID,0,VALID,90.0371,VALID,0,VALID,23.6232,VALID,37,VALID,1.00117,
2011-05-13, 01:55:04,VALID,998.903,VALID,0,VALID,90.2279,VALID,0,VALID,23.6036,VALID,37,VALID,1.1543,
2011-05-13, 01:56:04,VALID,998.897,VALID,0,VALID,90.1974,VALID,0,VALID,23.5628,VALID,46,VALID,1.18281,
2011-05-13, 01:57:04,VALID,998.89,VALID,0,VALID,90.3652,VALID,0,VALID,23.5841,VALID,47,VALID,0.748438,
2011-05-13, 01:58:04,VALID,998.877,VALID,0,VALID,90.5483,VALID,0,VALID,23.5628,VALID,47,VALID,0.960547,
2011-05-13, 01:59:04,VALID,998.851,VALID,0,VALID,90.7238,VALID,0,VALID,23.5859,VALID,41,VALID,0.922266,
2011-05-13, 02:00:04,VALID,998.843,VALID,0,VALID,90.8993,VALID,0,VALID,23.5646,VALID,39,VALID,0.707812,
2011-05-13, 02:01:04,VALID,998.852,VALID,0,VALID,90.9909,VALID,0,VALID,23.5238,VALID,39,VALID,0.148438,
2011-05-13, 02:02:04,VALID,998.842,VALID,0,VALID,91.029,VALID,0,VALID,23.5256,VALID,39,VALID,0.0558594,
2011-05-13, 02:03:04,VALID,998.832,VALID,0,VALID,91.1282,VALID,0,VALID,23.5061,VALID,39,VALID,0.539063,
2011-05-13, 02:04:04,VALID,998.806,VALID,0,VALID,91.1968,VALID,0,VALID,23.4848,VALID,30,VALID,0.517578,
2011-05-13, 02:05:04,VALID,998.76,VALID,0,VALID,91.2808,VALID,0,VALID,23.4866,VALID,30,VALID,0.903125,
2011-05-13, 02:06:04,VALID,998.755,VALID,0,VALID,91.3189,VALID,0,VALID,23.4866,VALID,30,VALID,0.8,
2011-05-13, 02:07:04,VALID,998.74,VALID,0,VALID,91.296,VALID,0,VALID,23.4475,VALID,11,VALID,0.293359,
2011-05-13, 02:08:04,VALID,998.726,VALID,0,VALID,91.296,VALID,0,VALID,23.4067,VALID,2,VALID,0,
2011-05-13, 02:09:04,VALID,998.714,VALID,0,VALID,91.296,VALID,0,VALID,23.428,VALID,2,VALID,0,
2011-05-13, 02:10:04,VALID,998.678,VALID,0,VALID,91.2808,VALID,0,VALID,23.4085,VALID,2,VALID,0,
2011-05-13, 02:11:04,VALID,998.679,VALID,0,VALID,91.3266,VALID,0,VALID,23.3872,VALID,2,VALID,0,
2011-05-13, 02:12:04,VALID,998.658,VALID,0,VALID,91.4105,VALID,0,VALID,23.4085,VALID,2,VALID,0,
2011-05-13, 02:13:04,VALID,998.633,VALID,0,VALID,91.4639,VALID,0,VALID,23.4085,VALID,2,VALID,0,
2011-05-13, 02:14:04,VALID,998.617,VALID,0,VALID,91.4639,VALID,0,VALID,23.4085,VALID,96,VALID,0,
2011-05-13, 02:15:04,VALID,998.615,VALID,0,VALID,91.4334,VALID,0,VALID,23.3695,VALID,102,VALID,0,
2011-05-13, 02:16:04,VALID,998.617,VALID,0,VALID,91.38,VALID,0,VALID,23.3695,VALID,103,VALID,0,
2011-05-13, 02:17:04,VALID,998.63,VALID,0,VALID,91.3876,VALID,0,VALID,23.3695,VALID,103,VALID,0,
2011-05-13, 02:18:04,VALID,998.651,VALID,0,VALID,91.4105,VALID,0,VALID,23.3695,VALID,103,VALID,0,
2011-05-13, 02:19:04,VALID,998.627,VALID,0,VALID,91.441,VALID,0,VALID,23.3695,VALID,103,VALID,0,
2011-05-13, 02:20:04,VALID,998.626,VALID,0,VALID,91.5173,VALID,0,VALID,23.389,VALID,103,VALID,0,
2011-05-13, 02:21:04,VALID,998.617,VALID,0,VALID,91.5554,VALID,0,VALID,23.3677,VALID,103,VALID,0,
2011-05-13, 02:22:04,VALID,998.629,VALID,0,VALID,91.5554,VALID,0,VALID,23.3695,VALID,103,VALID,0,
2011-05-13, 02:23:04,VALID,998.618,VALID,0,VALID,91.5936,VALID,0,VALID,23.389,VALID,103,VALID,0,
2011-05-13, 02:24:04,VALID,998.642,VALID,0,VALID,91.6241,VALID,0,VALID,23.4298,VALID,92,VALID,0.557422,
2011-05-13, 02:25:04,VALID,998.621,VALID,0,VALID,91.5936,VALID,0,VALID,23.428,VALID,92,VALID,0.833594,
2011-05-13, 02:26:04,VALID,998.64,VALID,0,VALID,91.5097,VALID,0,VALID,23.4475,VALID,92,VALID,0.746484,
2011-05-13, 02:27:04,VALID,998.623,VALID,0,VALID,91.3494,VALID,0,VALID,23.4671,VALID,92,VALID,0.895312,
2011-05-13, 02:28:04,VALID,998.649,VALID,0,VALID,91.235,VALID,0,VALID,23.4671,VALID,92,VALID,0.677734,
2011-05-13, 02:29:04,VALID,998.648,VALID,0,VALID,91.0595,VALID,0,VALID,23.4671,VALID,92,VALID,0.539844,
2011-05-13, 02:30:04,VALID,998.654,VALID,0,VALID,90.9756,VALID,0,VALID,23.428,VALID,104,VALID,0.752734,
2011-05-13, 02:31:04,VALID,998.652,VALID,0,VALID,90.9603,VALID,0,VALID,23.4085,VALID,104,VALID,0.667969,
2011-05-13, 02:32:04,VALID,998.636,VALID,0,VALID,91.0214,VALID,0,VALID,23.4067,VALID,104,VALID,0.861719,
2011-05-13, 02:33:04,VALID,998.652,VALID,0,VALID,91.0977,VALID,0,VALID,23.4085,VALID,104,VALID,0.923437,
2011-05-13, 02:34:04,VALID,998.634,VALID,0,VALID,91.174,VALID,0,VALID,23.4085,VALID,104,VALID,1.09766,
2011-05-13, 02:35:04,VALID,998.649,VALID,0,VALID,91.2121,VALID,0,VALID,23.4085,VALID,114,VALID,1.20898,
2011-05-13, 02:36:04,VALID,998.67,VALID,0,VALID,91.2045,VALID,0,VALID,23.4085,VALID,118,VALID,1.16914,
2011-05-13, 02:37:04,VALID,998.681,VALID,0,VALID,91.1434,VALID,0,VALID,23.389,VALID,129,VALID,1.12578,
2011-05-13, 02:38:04,VALID,998.709,VALID,0,VALID,91.0977,VALID,0,VALID,23.3677,VALID,133,VALID,0.905078,
2011-05-13, 02:39:04,VALID,998.707,VALID,0,VALID,91.09,VALID,0,VALID,23.389,VALID,141,VALID,0.9125,
2011-05-13, 02:40:04,VALID,998.731,VALID,0,VALID,91.029,VALID,0,VALID,23.3695,VALID,143,VALID,0.812891,
2011-05-13, 02:41:04,VALID,998.748,VALID,0,VALID,90.9985,VALID,0,VALID,23.3695,VALID,143,VALID,1.10312,
2011-05-13, 02:42:04,VALID,998.734,VALID,0,VALID,90.9374,VALID,0,VALID,23.389,VALID,141,VALID,0.980469,
2011-05-13, 02:43:04,VALID,998.738,VALID,0,VALID,90.8306,VALID,0,VALID,23.389,VALID,142,VALID,0.882422,
2011-05-13, 02:44:04,VALID,998.699,VALID,0,VALID,90.7162,VALID,0,VALID,23.389,VALID,149,VALID,1.02539,
2011-05-13, 02:45:04,VALID,998.697,VALID,0,VALID,90.6017,VALID,0,VALID,23.4085,VALID,146,VALID,1.04883,
2011-05-13, 02:46:04,VALID,998.704,VALID,0,VALID,90.472,VALID,0,VALID,23.4475,VALID,150,VALID,0.906641,
2011-05-13, 02:47:04,VALID,998.654,VALID,0,VALID,90.4339,VALID,0,VALID,23.4458,VALID,159,VALID,1.01289,
2011-05-13, 02:48:04,VALID,998.679,VALID,0,VALID,90.5407,VALID,0,VALID,23.5043,VALID,160,VALID,0.972266,
2011-05-13, 02:49:04,VALID,998.695,VALID,0,VALID,90.6094,VALID,0,VALID,23.5451,VALID,166,VALID,1.14023,
2011-05-13, 02:50:04,VALID,998.667,VALID,0,VALID,90.7085,VALID,0,VALID,23.5841,VALID,166,VALID,1.17461,
2011-05-13, 02:51:04,VALID,998.672,VALID,0,VALID,90.7085,VALID,0,VALID,23.6427,VALID,162,VALID,1.30273,
2011-05-13, 02:52:04,VALID,998.672,VALID,0,VALID,90.5178,VALID,0,VALID,23.6622,VALID,161,VALID,1.11406,
2011-05-13, 02:53:04,VALID,998.619,VALID,0,VALID,90.2431,VALID,0,VALID,23.6409,VALID,157,VALID,1.03281,
2011-05-13, 02:54:04,VALID,998.613,VALID,0,VALID,90.0143,VALID,0,VALID,23.6622,VALID,143,VALID,0.891016,
2011-05-13, 02:55:04,VALID,998.619,VALID,0,VALID,89.8388,VALID,0,VALID,23.6622,VALID,144,VALID,1.13711,
2011-05-13, 02:56:04,VALID,998.61,VALID,0,VALID,89.6709,VALID,0,VALID,23.6427,VALID,141,VALID,1.27344,
2011-05-13, 02:57:04,VALID,998.602,VALID,0,VALID,89.4802,VALID,0,VALID,23.6427,VALID,124,VALID,1.17305,
2011-05-13, 02:58:04,VALID,998.573,VALID,0,VALID,89.5031,VALID,0,VALID,23.6427,VALID,99,VALID,1.12578,
2011-05-13, 02:59:04,VALID,998.56,VALID,0,VALID,89.6023,VALID,0,VALID,23.6214,VALID,92,VALID,1.30898,
2011-05-13, 03:00:04,VALID,998.513,VALID,0,VALID,89.6328,VALID,0,VALID,23.6232,VALID,84,VALID,1.27695,
2011-05-13, 03:01:04,VALID,998.522,VALID,0,VALID,89.7701,VALID,0,VALID,23.6036,VALID,88,VALID,0.955859,
2011-05-13, 03:02:04,VALID,998.511,VALID,0,VALID,89.9227,VALID,0,VALID,23.5646,VALID,95,VALID,0.635156,
2011-05-13, 03:03:04,VALID,998.516,VALID,0,VALID,90.0295,VALID,0,VALID,23.5256,VALID,108,VALID,0.728906,
2011-05-13, 03:04:04,VALID,998.513,VALID,0,VALID,90.1058,VALID,0,VALID,23.5061,VALID,136,VALID,0.383594,
2011-05-13, 03:05:04,VALID,998.535,VALID,0,VALID,90.1363,VALID,0,VALID,23.4866,VALID,168,VALID,0.502344,
2011-05-13, 03:06:04,VALID,998.517,VALID,0,VALID,90.2584,VALID,0,VALID,23.4671,VALID,175,VALID,0.675781,
2011-05-13, 03:07:04,VALID,998.485,VALID,0,VALID,90.3576,VALID,0,VALID,23.4671,VALID,175,VALID,0.336328,
2011-05-13, 03:08:04,VALID,998.476,VALID,0,VALID,90.3805,VALID,0,VALID,23.4671,VALID,175,VALID,0.254297,
2011-05-13, 03:09:04,VALID,998.49,VALID,0,VALID,90.35,VALID,0,VALID,23.4671,VALID,175,VALID,0.300781,
2011-05-13, 03:10:04,VALID,998.514,VALID,0,VALID,90.3194,VALID,0,VALID,23.4475,VALID,175,VALID,0.0894531,
2011-05-13, 03:11:04,VALID,998.535,VALID,0,VALID,90.2966,VALID,0,VALID,23.4475,VALID,96,VALID,0.631641,
2011-05-13, 03:12:04,VALID,998.542,VALID,0,VALID,90.2737,VALID,0,VALID,23.4475,VALID,54,VALID,0.938281,
2011-05-13, 03:13:04,VALID,998.577,VALID,0,VALID,90.1821,VALID,0,VALID,23.428,VALID,45,VALID,1.11992,
2011-05-13, 03:14:04,VALID,998.562,VALID,0,VALID,90.266,VALID,0,VALID,23.428,VALID,45,VALID,1.10859,
2011-05-13, 03:15:04,VALID,998.587,VALID,0,VALID,90.3271,VALID,0,VALID,23.4085,VALID,45,VALID,0.826953,
2011-05-13, 03:16:04,VALID,998.599,VALID,0,VALID,90.2966,VALID,0,VALID,23.3872,VALID,45,VALID,0.505469,
2011-05-13, 03:17:04,VALID,998.587,VALID,0,VALID,90.266,VALID,0,VALID,23.3677,VALID,43,VALID,0.902344,
2011-05-13, 03:18:04,VALID,998.621,VALID,0,VALID,90.3728,VALID,0,VALID,23.3482,VALID,37,VALID,1.0207,
2011-05-13, 03:19:04,VALID,998.602,VALID,0,VALID,90.472,VALID,0,VALID,23.3287,VALID,37,VALID,0.854688,
2011-05-13, 03:20:04,VALID,998.621,VALID,0,VALID,90.6094,VALID,0,VALID,23.311,VALID,37,VALID,0.719141,
2011-05-13, 03:21:04,VALID,998.617,VALID,0,VALID,90.7238,VALID,0,VALID,23.311,VALID,37,VALID,0.703516,
2011-05-13, 03:22:04,VALID,998.623,VALID,0,VALID,90.8688,VALID,0,VALID,23.2915,VALID,37,VALID,0.841406,
2011-05-13, 03:23:04,VALID,998.647,VALID,0,VALID,90.9832,VALID,0,VALID,23.2507,VALID,44,VALID,0.964063,
2011-05-13, 03:24:04,VALID,998.646,VALID,0,VALID,91.0824,VALID,0,VALID,23.2507,VALID,53,VALID,0.980859,
2011-05-13, 03:25:04,VALID,998.652,VALID,0,VALID,91.1816,VALID,0,VALID,23.2312,VALID,54,VALID,0.888672,
2011-05-13, 03:26:04,VALID,998.652,VALID,0,VALID,91.3113,VALID,0,VALID,23.2524,VALID,54,VALID,0.879687,
2011-05-13, 03:27:04,VALID,998.662,VALID,0,VALID,91.3647,VALID,0,VALID,23.2329,VALID,54,VALID,0.626172,
2011-05-13, 03:28:04,VALID,998.605,VALID,0,VALID,91.4028,VALID,0,VALID,23.2117,VALID,54,VALID,0.736719,
2011-05-13, 03:29:04,VALID,998.611,VALID,0,VALID,91.4334,VALID,0,VALID,23.1939,VALID,54,VALID,0,
2011-05-13, 03:30:04,VALID,998.591,VALID,0,VALID,91.4944,VALID,0,VALID,23.1957,VALID,54,VALID,0,
2011-05-13, 03:31:04,VALID,998.601,VALID,0,VALID,91.5554,VALID,0,VALID,23.1549,VALID,54,VALID,0,
2011-05-13, 03:32:04,VALID,998.61,VALID,0,VALID,91.6088,VALID,0,VALID,23.1566,VALID,54,VALID,0,
2011-05-13, 03:33:04,VALID,998.602,VALID,0,VALID,91.6241,VALID,0,VALID,23.1176,VALID,54,VALID,0,
2011-05-13, 03:34:04,VALID,998.589,VALID,0,VALID,91.6699,VALID,0,VALID,23.0981,VALID,54,VALID,0,
2011-05-13, 03:35:04,VALID,998.583,VALID,0,VALID,91.7385,VALID,0,VALID,23.0769,VALID,54,VALID,0,
2011-05-13, 03:36:04,VALID,998.596,VALID,0,VALID,91.8072,VALID,0,VALID,23.0786,VALID,54,VALID,0,
2011-05-13, 03:37:04,VALID,998.578,VALID,0,VALID,91.8072,VALID,0,VALID,23.0573,VALID,54,VALID,0,
2011-05-13, 03:38:04,VALID,998.583,VALID,0,VALID,91.8377,VALID,0,VALID,23.0786,VALID,54,VALID,0,
2011-05-13, 03:39:04,VALID,998.578,VALID,0,VALID,91.8454,VALID,0,VALID,23.0573,VALID,54,VALID,0,
2011-05-13, 03:40:04,VALID,998.551,VALID,0,VALID,91.8301,VALID,0,VALID,23.0591,VALID,54,VALID,0,
2011-05-13, 03:41:04,VALID,998.492,VALID,0,VALID,91.8072,VALID,0,VALID,23.0591,VALID,54,VALID,0,
2011-05-13, 03:42:04,VALID,998.502,VALID,0,VALID,91.7691,VALID,0,VALID,23.0591,VALID,54,VALID,0,
2011-05-13, 03:43:04,VALID,998.51,VALID,0,VALID,91.7309,VALID,0,VALID,23.0201,VALID,54,VALID,0,
2011-05-13, 03:44:04,VALID,998.523,VALID,0,VALID,91.7157,VALID,0.112286,VALID,22.9776,VALID,54,VALID,0,
2011-05-13, 03:45:04,VALID,998.525,VALID,0,VALID,91.7462,VALID,0.112286,VALID,22.9776,VALID,54,VALID,0,
2011-05-13, 03:46:04,VALID,998.539,VALID,0,VALID,91.8301,VALID,0,VALID,22.9776,VALID,54,VALID,0,
2011-05-13, 03:47:04,VALID,998.55,VALID,0,VALID,91.8835,VALID,0,VALID,22.9988,VALID,54,VALID,0,
2011-05-13, 03:48:04,VALID,998.598,VALID,0,VALID,91.9369,VALID,0,VALID,23.0166,VALID,54,VALID,0,
2011-05-13, 03:49:04,VALID,998.611,VALID,0,VALID,91.9445,VALID,0.112286,VALID,23.0166,VALID,54,VALID,0,
2011-05-13, 03:50:04,VALID,998.597,VALID,0,VALID,91.9674,VALID,0,VALID,23.0166,VALID,54,VALID,0,
2011-05-13, 03:51:04,VALID,998.621,VALID,0,VALID,91.9598,VALID,0,VALID,23.0378,VALID,51,VALID,0.610937,
2011-05-13, 03:52:04,VALID,998.641,VALID,0,VALID,91.9217,VALID,0,VALID,23.0361,VALID,42,VALID,0.736328,
2011-05-13, 03:53:04,VALID,998.641,VALID,0,VALID,91.9217,VALID,0.112286,VALID,23.0556,VALID,40,VALID,0.789453,